| time (UTC) | temp F | wind direction | speed MPH | gust MPH | rain 1hr in | rain 24hr in | rain mn in | humidity % | barometer mb |
| 20260505124004 | 67 | 139 | 5.0 | 10.0 | 0.00 | 0.04 | 0.04 | 86 | 1014.0 |
| 20260505123504 | 67 | 107 | 5.0 | 8.0 | 0.00 | 0.04 | 0.04 | 86 | 1014.0 |
| 20260505122504 | 67 | 159 | 3.0 | 9.0 | 0.00 | 0.04 | 0.04 | 87 | 1013.9 |
| 20260505122004 | 67 | 101 | 3.0 | 8.0 | 0.00 | 0.04 | 0.04 | 88 | 1013.9 |
| 20260505121504 | 67 | 130 | 2.0 | 7.0 | 0.00 | 0.04 | 0.04 | 89 | 1013.8 |
| 20260505121004 | 66 | 88 | 5.0 | 8.0 | 0.00 | 0.04 | 0.04 | 89 | 1013.8 |
| 20260505120005 | 66 | 102 | 2.0 | 7.0 | 0.00 | 0.04 | 0.04 | 90 | 1014.1 |
| 20260505115504 | 65 | 127 | 2.0 | 8.0 | 0.00 | 0.04 | 0.04 | 90 | 1014.2 |
| 20260505115004 | 65 | 99 | 2.0 | 8.0 | 0.00 | 0.04 | 0.04 | 90 | 1014.4 |
| 20260505113504 | 65 | 108 | 3.0 | 9.0 | 0.00 | 0.04 | 0.04 | 91 | 1014.6 |
| 20260505113004 | 65 | 149 | 3.0 | 7.0 | 0.00 | 0.04 | 0.04 | 91 | 1014.5 |
| 20260505112504 | 65 | 107 | 4.0 | 9.0 | 0.00 | 0.04 | 0.04 | 91 | 1014.5 |
| 20260505112003 | 65 | 114 | 3.0 | 6.0 | 0.00 | 0.04 | 0.04 | 91 | 1014.5 |
| 20260505111003 | 65 | 98 | 3.0 | 7.0 | 0.01 | 0.04 | 0.04 | 91 | 1014.5 |
| 20260505110503 | 65 | 106 | 4.0 | 8.0 | 0.02 | 0.04 | 0.04 | 91 | 1014.4 |
| 20260505102004 | 66 | 104 | 3.0 | 8.0 | 0.02 | 0.04 | 0.04 | 88 | 1015.1 |
| 20260505101003 | 66 | 118 | 3.0 | 7.0 | 0.01 | 0.03 | 0.03 | 88 | 1015.2 |
| 20260505100504 | 66 | 112 | 3.0 | 8.0 | 0.00 | 0.02 | 0.02 | 87 | 1015.3 |
| 20260505100004 | 66 | 110 | 2.0 | 7.0 | 0.00 | 0.02 | 0.02 | 87 | 1015.2 |
| 20260505094003 | 66 | 143 | 2.0 | 3.0 | 0.00 | 0.02 | 0.02 | 85 | 1015.0 |
| 20260505093504 | 66 | 137 | 2.0 | 3.0 | 0.00 | 0.02 | 0.02 | 85 | 1015.0 |
| 20260505093004 | 66 | 106 | 2.0 | 3.0 | 0.00 | 0.02 | 0.02 | 85 | 1015.0 |
| 20260505092503 | 66 | 100 | 1.0 | 3.0 | 0.00 | 0.02 | 0.02 | 85 | 1014.9 |
| 20260505092004 | 66 | 104 | 1.0 | 3.0 | 0.00 | 0.02 | 0.02 | 85 | 1014.9 |
| 20260505091504 | 66 | 125 | 1.0 | 3.0 | 0.00 | 0.02 | 0.02 | 84 | 1015.0 |
| 20260505091004 | 66 | 123 | 2.0 | 3.0 | 0.00 | 0.02 | 0.02 | 83 | 1014.8 |
| 20260505090503 | 66 | 139 | 2.0 | 3.0 | 0.00 | 0.02 | 0.02 | 83 | 1014.7 |
| 20260505090004 | 66 | 115 | 1.0 | 3.0 | 0.00 | 0.02 | 0.02 | 82 | 1014.4 |
| 20260505085004 | 66 | 101 | 2.0 | 3.0 | 0.00 | 0.02 | 0.02 | 82 | 1014.2 |
| 20260505084504 | 66 | 119 | 2.0 | 3.0 | 0.00 | 0.02 | 0.02 | 82 | 1014.2 |
| 20260505084003 | 66 | 141 | 1.0 | 3.0 | 0.00 | 0.02 | 0.02 | 82 | 1014.3 |
| 20260505083503 | 66 | 128 | 2.0 | 3.0 | 0.00 | 0.02 | 0.02 | 83 | 1014.2 |
| 20260505083004 | 66 | 155 | 2.0 | 3.0 | 0.00 | 0.02 | 0.02 | 83 | 1014.0 |
| 20260505082004 | 66 | 104 | 2.0 | 6.0 | 0.00 | 0.02 | 0.02 | 84 | 1013.8 |
| 20260505081003 | 66 | 112 | 2.0 | 3.0 | 0.00 | 0.02 | 0.02 | 84 | 1013.9 |
| 20260505080504 | 66 | 106 | 2.0 | 3.0 | 0.00 | 0.02 | 0.02 | 85 | 1013.9 |
| 20260505080004 | 65 | 102 | 2.0 | 3.0 | 0.00 | 0.02 | 0.02 | 86 | 1014.0 |
| 20260505075004 | 65 | 92 | 1.0 | 3.0 | 0.00 | 0.02 | 0.02 | 87 | 1013.9 |
| 20260505074503 | 65 | 89 | 2.0 | 6.0 | 0.00 | 0.02 | 0.02 | 87 | 1013.9 |
| 20260505074004 | 65 | 92 | 2.0 | 6.0 | 0.00 | 0.02 | 0.02 | 87 | 1014.0 |
| 20260505073504 | 65 | 104 | 2.0 | 3.0 | 0.00 | 0.02 | 0.02 | 88 | 1014.1 |
| 20260505073003 | 65 | 94 | 2.0 | 3.0 | 0.00 | 0.02 | 0.02 | 88 | 1014.0 |
| 20260505072504 | 65 | 101 | 2.0 | 7.0 | 0.00 | 0.02 | 0.02 | 88 | 1014.2 |
| 20260505072003 | 65 | 91 | 2.0 | 3.0 | 0.00 | 0.02 | 0.02 | 88 | 1014.2 |
| 20260505071504 | 65 | 101 | 3.0 | 7.0 | 0.01 | 0.02 | 0.02 | 89 | 1014.2 |
| 20260505071003 | 65 | 106 | 1.0 | 3.0 | 0.01 | 0.02 | 0.02 | 89 | 1014.2 |
| 20260505070504 | 65 | 108 | 2.0 | 6.0 | 0.01 | 0.02 | 0.02 | 89 | 1014.2 |
| 20260505070004 | 65 | 97 | 2.0 | 7.0 | 0.01 | 0.02 | 0.02 | 89 | 1014.3 |
| 20260505065504 | 65 | 96 | 1.0 | 3.0 | 0.01 | 0.02 | 0.02 | 90 | 1014.4 |
| 20260505065003 | 65 | 111 | 1.0 | 7.0 | 0.01 | 0.02 | 0.02 | 90 | 1014.2 |
| 20260505064503 | 65 | 111 | 2.0 | 3.0 | 0.01 | 0.02 | 0.02 | 90 | 1014.1 |
| 20260505064004 | 64 | 93 | 2.0 | 6.0 | 0.01 | 0.02 | 0.02 | 90 | 1014.1 |
| 20260505063504 | 64 | 97 | 2.0 | 6.0 | 0.01 | 0.02 | 0.02 | 90 | 1014.2 |
| 20260505062504 | 64 | 83 | 2.0 | 3.0 | 0.01 | 0.02 | 0.02 | 90 | 1014.3 |
| 20260505062003 | 64 | 82 | 1.0 | 3.0 | 0.01 | 0.02 | 0.02 | 90 | 1014.4 |
| 20260505061504 | 64 | 80 | 1.0 | 2.0 | 0.00 | 0.02 | 0.02 | 90 | 1014.5 |
| 20260505061004 | 64 | 79 | 1.0 | 2.0 | 0.00 | 0.02 | 0.02 | 90 | 1014.4 |
| 20260505060504 | 64 | 79 | 1.0 | 3.0 | 0.00 | 0.02 | 0.02 | 90 | 1014.2 |
| 20260505060004 | 64 | 77 | 1.0 | 3.0 | 0.00 | 0.02 | 0.02 | 90 | 1014.1 |
| 20260505055004 | 64 | 75 | 2.0 | 3.0 | 0.00 | 0.02 | 0.02 | 90 | 1014.2 |
| 20260505054504 | 64 | 86 | 2.0 | 6.0 | 0.00 | 0.02 | 0.02 | 90 | 1014.2 |
| 20260505054003 | 64 | 87 | 2.0 | 3.0 | 0.00 | 0.02 | 0.02 | 90 | 1014.2 |
| 20260505053504 | 64 | 95 | 2.0 | 3.0 | 0.00 | 0.02 | 0.02 | 90 | 1014.4 |
| 20260505053003 | 65 | 92 | 1.0 | 3.0 | 0.00 | 0.02 | 0.02 | 90 | 1014.4 |
| 20260505052504 | 65 | 91 | 0.0 | 1.0 | 0.00 | 0.02 | 0.02 | 90 | 1014.3 |
| 20260505052004 | 65 | 91 | 0.0 | 1.0 | 0.00 | 0.02 | 0.02 | 90 | 1014.2 |
| 20260505051503 | 65 | 91 | 0.0 | 3.0 | 0.00 | 0.02 | 0.02 | 90 | 1014.1 |
| 20260505050503 | 65 | 87 | 1.0 | 3.0 | 0.00 | 0.02 | 0.02 | 90 | 1014.0 |
| 20260505041003 | 64 | 92 | 0.0 | 3.0 | 0.00 | 0.02 | 0.02 | 88 | 1013.7 |
| 20260505040504 | 64 | 84 | 2.0 | 3.0 | 0.00 | 0.02 | 0.02 | 88 | 1013.9 |
| 20260505040004 | 64 | 281 | 1.0 | 3.0 | 0.00 | 0.02 | 0.02 | 88 | 1014.1 |
| 20260505035504 | 64 | 280 | 1.0 | 3.0 | 0.00 | 0.02 | 0.02 | 88 | 1014.2 |
| 20260505034504 | 64 | 295 | 1.0 | 3.0 | 0.00 | 0.02 | 0.02 | 89 | 1013.7 |
| 20260505034004 | 64 | 314 | 1.0 | 3.0 | 0.00 | 0.02 | 0.02 | 89 | 1013.6 |
| 20260505033503 | 64 | 67 | 1.0 | 2.0 | 0.00 | 0.02 | 0.02 | 89 | 1013.5 |
| 20260505033004 | 64 | 67 | 0.0 | 0.0 | 0.00 | 0.02 | 0.02 | 89 | 1013.4 |
| 20260505032503 | 64 | 67 | 0.0 | 0.0 | 0.00 | 0.02 | 0.02 | 89 | 1013.5 |
| 20260505032004 | 64 | 67 | 0.0 | 0.0 | 0.00 | 0.02 | 0.02 | 89 | 1013.6 |
| 20260505031503 | 64 | 67 | 0.0 | 0.0 | 0.01 | 0.02 | 0.02 | 89 | 1013.7 |
| 20260505030503 | 64 | 67 | 0.0 | 3.0 | 0.02 | 0.02 | 0.02 | 89 | 1013.6 |
| 20260505030004 | 64 | 67 | 1.0 | 3.0 | 0.02 | 0.02 | 0.02 | 89 | 1013.6 |
| 20260505025503 | 64 | 67 | 1.0 | 6.0 | 0.02 | 0.02 | 0.02 | 89 | 1013.5 |
| 20260505025004 | 64 | 86 | 2.0 | 3.0 | 0.02 | 0.02 | 0.02 | 89 | 1013.7 |
| 20260505024504 | 64 | 88 | 1.0 | 3.0 | 0.02 | 0.02 | 0.02 | 89 | 1013.8 |
| 20260505023504 | 64 | 74 | 2.0 | 3.0 | 0.02 | 0.02 | 0.02 | 89 | 1013.6 |
| 20260505023003 | 64 | 84 | 3.0 | 6.0 | 0.02 | 0.02 | 0.02 | 89 | 1013.6 |
| 20260505022504 | 65 | 88 | 2.0 | 6.0 | 0.02 | 0.02 | 0.02 | 89 | 1013.6 |
| 20260505022004 | 65 | 91 | 3.0 | 7.0 | 0.02 | 0.02 | 0.02 | 88 | 1013.9 |
| 20260505021504 | 65 | 86 | 3.0 | 7.0 | 0.01 | 0.01 | 0.01 | 88 | 1014.3 |
| 20260505021003 | 65 | 87 | 1.0 | 2.0 | 0.01 | 0.01 | 0.01 | 88 | 1014.8 |
| 20260505020504 | 65 | 87 | 0.0 | 2.0 | 0.00 | 0.00 | 0.00 | 88 | 1014.8 |
| 20260505020004 | 65 | 87 | 1.0 | 2.0 | 0.00 | 0.00 | 0.00 | 88 | 1014.7 |
| 20260505015504 | 65 | 86 | 0.0 | 3.0 | 0.00 | 0.00 | 0.00 | 88 | 1014.3 |
| 20260505015004 | 65 | 86 | 1.0 | 3.0 | 0.00 | 0.00 | 0.00 | 88 | 1014.4 |
| 20260505014504 | 65 | 86 | 2.0 | 3.0 | 0.00 | 0.00 | 0.00 | 88 | 1014.4 |
| 20260505014004 | 65 | 82 | 1.0 | 2.0 | 0.00 | 0.00 | 0.00 | 88 | 1014.3 |
| 20260505013503 | 65 | 81 | 1.0 | 3.0 | 0.00 | 0.00 | 0.00 | 88 | 1014.4 |
| 20260505013004 | 65 | 81 | 1.0 | 3.0 | 0.00 | 0.00 | 0.00 | 88 | 1014.3 |
| 20260505012504 | 65 | 83 | 1.0 | 3.0 | 0.00 | 0.00 | 0.00 | 88 | 1014.3 |
| 20260505012003 | 65 | 85 | 0.0 | 3.0 | 0.00 | 0.00 | 0.00 | 89 | 1014.5 |
| 20260505011504 | 65 | 119 | 1.0 | 5.0 | 0.00 | 0.00 | 0.00 | 89 | 1014.5 |
| 20260505011004 | 65 | 95 | 2.0 | 3.0 | 0.00 | 0.00 | 0.00 | 89 | 1014.4 |
| 20260505010504 | 65 | 112 | 2.0 | 3.0 | 0.00 | 0.00 | 0.00 | 90 | 1014.6 |
| 20260505010004 | 65 | 105 | 2.0 | 6.0 | 0.00 | 0.00 | 0.00 | 90 | 1014.5 |
| 20260505005504 | 65 | 112 | 2.0 | 5.0 | 0.00 | 0.00 | 0.00 | 90 | 1014.5 |
| 20260505004504 | 65 | 103 | 2.0 | 6.0 | 0.00 | 0.00 | 0.00 | 90 | 1014.4 |
| 20260505004004 | 65 | 85 | 3.0 | 7.0 | 0.00 | 0.00 | 0.00 | 90 | 1014.4 |
| 20260505003503 | 65 | 98 | 4.0 | 8.0 | 0.00 | 0.00 | 0.00 | 90 | 1014.5 |
| 20260505003004 | 65 | 131 | 2.0 | 6.0 | 0.00 | 0.00 | 0.00 | 91 | 1014.6 |
| 20260505002504 | 65 | 110 | 3.0 | 7.0 | 0.00 | 0.00 | 0.00 | 91 | 1014.7 |
| 20260505002004 | 65 | 107 | 3.0 | 7.0 | 0.00 | 0.00 | 0.00 | 91 | 1014.7 |
| 20260505001004 | 65 | 109 | 3.0 | 7.0 | 0.00 | 0.00 | 0.00 | 91 | 1014.9 |
| 20260505000004 | 65 | 147 | 3.0 | 6.0 | 0.00 | 0.00 | 0.00 | 91 | 1015.2 |
| 20260504235504 | 65 | 134 | 2.0 | 5.0 | 0.00 | 0.00 | 0.00 | 91 | 1015.3 |
| 20260504235004 | 65 | 141 | 3.0 | 6.0 | 0.00 | 0.00 | 0.00 | 91 | 1015.3 |
| 20260504234503 | 65 | 146 | 2.0 | 6.0 | 0.00 | 0.00 | 0.00 | 91 | 1015.2 |
| 20260504234003 | 65 | 116 | 2.0 | 3.0 | 0.00 | 0.00 | 0.00 | 91 | 1015.2 |
| 20260504233504 | 65 | 117 | 2.0 | 8.0 | 0.00 | 0.00 | 0.00 | 91 | 1015.1 |
| 20260504233003 | 65 | 109 | 1.0 | 7.0 | 0.00 | 0.00 | 0.00 | 91 | 1015.1 |
| 20260504232504 | 65 | 105 | 3.0 | 7.0 | 0.00 | 0.00 | 0.00 | 91 | 1015.4 |
| 20260504232004 | 65 | 100 | 2.0 | 6.0 | 0.00 | 0.00 | 0.00 | 91 | 1015.4 |
| 20260504231503 | 65 | 129 | 2.0 | 3.0 | 0.00 | 0.00 | 0.00 | 91 | 1015.4 |
| 20260504231004 | 65 | 106 | 2.0 | 6.0 | 0.00 | 0.00 | 0.00 | 91 | 1015.4 |
| 20260504230004 | 65 | 111 | 2.0 | 6.0 | 0.00 | 0.00 | 0.00 | 91 | 1015.4 |
| 20260504225504 | 65 | 123 | 3.0 | 9.0 | 0.00 | 0.00 | 0.00 | 91 | 1015.4 |
| 20260504225004 | 65 | 156 | 4.0 | 7.0 | 0.00 | 0.00 | 0.00 | 91 | 1015.4 |
| 20260504224503 | 65 | 144 | 3.0 | 7.0 | 0.00 | 0.00 | 0.00 | 90 | 1015.4 |
| 20260504224004 | 65 | 117 | 2.0 | 6.0 | 0.00 | 0.00 | 0.00 | 90 | 1015.4 |
| 20260504223504 | 65 | 144 | 2.0 | 5.0 | 0.00 | 0.00 | 0.00 | 90 | 1015.5 |
| 20260504223003 | 65 | 114 | 1.0 | 6.0 | 0.00 | 0.00 | 0.00 | 90 | 1015.5 |
| 20260504222504 | 65 | 101 | 3.0 | 7.0 | 0.00 | 0.00 | 0.00 | 90 | 1015.5 |
| 20260504222004 | 66 | 126 | 2.0 | 3.0 | 0.00 | 0.00 | 0.00 | 90 | 1015.5 |
| 20260504221504 | 66 | 131 | 2.0 | 5.0 | 0.00 | 0.00 | 0.00 | 90 | 1015.6 |
| 20260504220004 | 66 | 124 | 2.0 | 6.0 | 0.00 | 0.00 | 0.00 | 89 | 1015.6 |
| 20260504215003 | 66 | 108 | 3.0 | 6.0 | 0.00 | 0.00 | 0.00 | 89 | 1015.6 |
| 20260504214004 | 66 | 101 | 2.0 | 8.0 | 0.00 | 0.00 | 0.00 | 89 | 1015.7 |
| 20260504213503 | 66 | 122 | 3.0 | 8.0 | 0.00 | 0.00 | 0.00 | 89 | 1015.8 |
| 20260504212504 | 66 | 124 | 3.0 | 7.0 | 0.00 | 0.00 | 0.00 | 89 | 1015.8 |
| 20260504212003 | 66 | 128 | 2.0 | 3.0 | 0.00 | 0.00 | 0.00 | 89 | 1015.9 |
| 20260504211504 | 66 | 139 | 2.0 | 6.0 | 0.00 | 0.00 | 0.00 | 89 | 1015.8 |
| 20260504211004 | 66 | 148 | 2.0 | 5.0 | 0.00 | 0.00 | 0.00 | 89 | 1015.8 |
| 20260504210503 | 66 | 148 | 2.0 | 7.0 | 0.00 | 0.00 | 0.00 | 89 | 1015.8 |
| 20260504210004 | 66 | 169 | 2.0 | 6.0 | 0.00 | 0.00 | 0.00 | 89 | 1015.8 |
| 20260504205504 | 66 | 169 | 3.0 | 6.0 | 0.00 | 0.00 | 0.00 | 89 | 1015.8 |
| 20260504205004 | 66 | 152 | 3.0 | 5.0 | 0.00 | 0.00 | 0.00 | 88 | 1016.0 |
| 20260504204503 | 66 | 167 | 2.0 | 5.0 | 0.00 | 0.00 | 0.00 | 88 | 1016.0 |
| 20260504204004 | 66 | 171 | 3.0 | 7.0 | 0.00 | 0.00 | 0.00 | 88 | 1016.0 |
| 20260504203003 | 66 | 157 | 2.0 | 5.0 | 0.00 | 0.00 | 0.00 | 88 | 1016.0 |
| 20260504202004 | 66 | 157 | 1.0 | 5.0 | 0.00 | 0.00 | 0.00 | 88 | 1015.9 |
| 20260504201504 | 66 | 157 | 0.0 | 3.0 | 0.00 | 0.00 | 0.00 | 88 | 1015.8 |
| 20260504201004 | 66 | 157 | 2.0 | 6.0 | 0.00 | 0.00 | 0.00 | 88 | 1015.7 |
| 20260504200504 | 66 | 157 | 2.0 | 3.0 | 0.00 | 0.00 | 0.00 | 88 | 1015.8 |
| 20260504200003 | 66 | 157 | 2.0 | 3.0 | 0.00 | 0.00 | 0.00 | 88 | 1015.6 |
| 20260504195504 | 66 | 157 | 2.0 | 3.0 | 0.00 | 0.00 | 0.00 | 88 | 1015.6 |
| 20260504195004 | 66 | 157 | 1.0 | 3.0 | 0.00 | 0.00 | 0.00 | 88 | 1015.6 |
| 20260504194504 | 66 | 168 | 2.0 | 3.0 | 0.00 | 0.00 | 0.00 | 88 | 1015.5 |
| 20260504194004 | 66 | 168 | 1.0 | 2.0 | 0.00 | 0.00 | 0.00 | 88 | 1015.3 |
| 20260504193504 | 66 | 168 | 0.0 | 2.0 | 0.00 | 0.00 | 0.00 | 88 | 1015.2 |
| 20260504193004 | 66 | 168 | 0.0 | 0.0 | 0.00 | 0.00 | 0.00 | 88 | 1015.4 |
| 20260504192503 | 66 | 168 | 0.0 | 0.0 | 0.00 | 0.00 | 0.00 | 88 | 1015.5 |
| 20260504192004 | 66 | 168 | 1.0 | 3.0 | 0.00 | 0.00 | 0.00 | 88 | 1015.5 |
| 20260504191004 | 66 | 181 | 2.0 | 5.0 | 0.00 | 0.00 | 0.00 | 88 | 1015.4 |
| 20260504190504 | 66 | 182 | 4.0 | 6.0 | 0.00 | 0.00 | 0.00 | 88 | 1015.5 |
| 20260504190004 | 66 | 171 | 2.0 | 7.0 | 0.00 | 0.00 | 0.00 | 88 | 1015.4 |
| 20260504185503 | 66 | 181 | 5.0 | 9.0 | 0.00 | 0.00 | 0.00 | 88 | 1015.4 |
| 20260504184504 | 66 | 201 | 5.0 | 10.0 | 0.00 | 0.00 | 0.00 | 87 | 1015.3 |
| 20260504184003 | 66 | 169 | 3.0 | 6.0 | 0.00 | 0.00 | 0.00 | 87 | 1015.3 |
| 20260504183504 | 66 | 178 | 3.0 | 8.0 | 0.00 | 0.00 | 0.00 | 87 | 1015.0 |
| 20260504183004 | 66 | 103 | 1.0 | 3.0 | 0.00 | 0.00 | 0.00 | 87 | 1014.8 |
| 20260504182503 | 66 | 111 | 2.0 | 3.0 | 0.00 | 0.00 | 0.00 | 87 | 1014.8 |
| 20260504182004 | 66 | 118 | 2.0 | 3.0 | 0.00 | 0.00 | 0.00 | 87 | 1014.8 |
| 20260504181504 | 66 | 119 | 3.0 | 7.0 | 0.00 | 0.00 | 0.00 | 87 | 1014.8 |
| 20260504181004 | 66 | 103 | 3.0 | 6.0 | 0.00 | 0.00 | 0.00 | 87 | 1015.1 |
| 20260504180504 | 66 | 134 | 2.0 | 5.0 | 0.00 | 0.00 | 0.00 | 87 | 1015.2 |
| 20260504174504 | 66 | 96 | 3.0 | 8.0 | 0.00 | 0.00 | 0.00 | 86 | 1014.8 |
| 20260504174003 | 66 | 93 | 3.0 | 8.0 | 0.00 | 0.00 | 0.00 | 86 | 1014.9 |
| 20260504173503 | 66 | 112 | 4.0 | 8.0 | 0.00 | 0.00 | 0.00 | 86 | 1015.0 |
| 20260504173004 | 66 | 118 | 3.0 | 9.0 | 0.00 | 0.00 | 0.00 | 86 | 1015.1 |
| 20260504172504 | 66 | 102 | 5.0 | 10.0 | 0.00 | 0.00 | 0.00 | 86 | 1015.1 |
| 20260504172003 | 66 | 104 | 3.0 | 9.0 | 0.00 | 0.00 | 0.00 | 86 | 1015.2 |
| 20260504171504 | 66 | 140 | 4.0 | 8.0 | 0.00 | 0.00 | 0.00 | 86 | 1015.5 |
| 20260504171003 | 66 | 128 | 5.0 | 8.0 | 0.00 | 0.00 | 0.00 | 86 | 1015.5 |
| 20260504170503 | 66 | 159 | 3.0 | 8.0 | 0.00 | 0.00 | 0.00 | 86 | 1015.5 |
| 20260504151004 | 68 | 137 | 6.0 | 12.0 | 0.00 | 0.00 | 0.00 | 82 | 1014.7 |
| 20260504140504 | 69 | 148 | 7.0 | 12.0 | 0.00 | 0.00 | 0.00 | 79 | 1015.1 |